Wind_Speed
38 38 37 36 34 33 31 29 27 27 27 27 27 28 29 29 29 29 28 28 29 30 32 33 33 33 34 36 38 39 39 38 39 40 42 43 44 44 43 41 40 39 39 39 39 40 42 44 45 45 45 44 45 45 44 44 44 44 44 43 41 39 38 37 38 39 38 36 34
38 38 37 36 34 32 30 28 28 27 27 26 26 27 27 28 28 28 28 27 27 27 28 31 33 33 34 34 37 38 38 38 38 39 41 42 43 44 44 43 43 42 42 41 40 40 41 44 45 45 46 45 46 46 46 46 45 45 46 47 44 41 39 38 38 39 40 38 35
38 37 36 35 34 32 30 28 28 28 27 27 26 26 26 26 27 27 28 27 26 26 26 28 32 34 35 35 36 37 38 38 38 38 39 41 42 43 44 44 44 44 44 43 42 42 42 42 44 46 47 46 47 47 47 47 46 46 47 48 47 44 41 39 39 40 40 40 37
37 36 36 35 34 32 30 28 28 27 27 27 26 26 26 25 25 26 26 27 26 26 26 28 30 33 35 35 36 36 37 38 38 38 39 39 41 42 43 44 44 44 43 43 43 44 44 43 45 47 48 48 48 48 48 48 47 47 47 48 49 48 44 41 40 41 41 41 40
36 36 35 35 33 31 29 28 27 27 26 26 26 26 25 25 24 24 25 26 27 27 27 27 29 31 32 33 34 34 35 36 37 38 38 39 39 40 42 43 44 43 43 42 43 44 45 45 45 45 46 48 49 49 49 49 48 47 47 48 49 49 47 44 43 42 42 42 41
35 35 34 34 33 31 28 27 26 26 26 26 26 26 26 25 25 25 24 25 27 27 27 27 28 29 29 29 30 31 32 33 35 36 38 38 38 38 39 42 42 42 43 43 43 44 46 46 47 46 46 48 50 50 50 50 50 49 48 48 49 50 50 48 46 44 43 43 43
35 34 33 33 32 30 28 26 26 26 26 26 26 26 26 26 26 26 25 26 26 27 27 28 28 28 27 27 27 27 29 30 32 33 35 36 37 38 39 40 40 40 40 41 42 43 44 46 47 48 48 49 50 51 51 51 51 51 50 50 51 51 50 47 46 45 44 44 43
35 33 32 31 31 30 28 27 26 26 25 25 25 25 26 26 27 26 26 27 27 27 28 28 28 26 25 25 25 25 26 28 29 30 31 33 35 36 37 38 38 38 39 39 40 41 42 43 45 47 48 49 50 50 51 52 52 52 52 52 52 52 51 48 46 45 45 44 44
33 32 30 28 29 29 28 29 28 27 26 25 25 25 25 25 26 26 26 27 27 27 27 26 26 25 24 24 24 25 25 26 27 28 28 30 32 33 35 35 36 37 38 39 40 40 41 42 43 45 46 48 49 50 51 52 52 53 53 53 53 53 52 50 49 48 47 46 45
31 29 27 27 27 28 28 28 28 27 26 25 25 24 24 25 25 26 25 25 25 25 25 24 24 24 24 24 25 25 26 26 27 27 28 29 30 32 33 35 36 38 39 40 40 41 41 42 43 44 46 47 48 50 51 52 53 53 53 53 53 53 53 52 51 50 49 47 46
29 28 27 27 28 28 28 28 28 27 27 26 25 24 25 26 26 25 24 23 23 23 24 24 24 25 25 25 26 26 27 28 28 29 30 31 32 33 34 36 37 39 40 41 41 40 40 40 42 44 45 47 48 49 50 51 52 53 53 53 53 53 53 52 51 50 50 49 48
29 29 29 29 29 28 27 27 27 27 27 26 25 25 25 26 25 24 23 23 23 24 24 25 26 26 27 27 28 29 29 30 31 31 32 32 33 34 36 37 39 40 41 42 41 39 37 36 37 39 41 43 44 45 46 47 49 49 50 51 51 51 51 51 50 49 50 50 50
32 31 30 29 28 27 26 26 25 26 26 26 25 25 25 25 24 24 24 24 24 25 26 27 28 29 30 30 31 31 31 32 33 33 34 34 35 36 37 39 40 41 42 43 42 40 38 36 35 34 34 35 37 38 38 39 41 42 44 45 46 47 48 48 49 49 49 50 51
32 31 29 28 26 26 25 25 25 25 26 26 25 24 24 24 24 25 26 26 27 28 29 30 31 32 32 33 33 33 33 34 34 35 35 36 36 36 37 38 40 41 42 43 44 43 42 40 38 35 33 32 32 33 34 34 35 36 38 39 40 42 43 44 46 47 48 50 51
29 28 26 25 25 25 25 25 25 25 25 25 24 23 24 25 26 27 28 29 29 30 31 32 33 33 34 34 35 35 35 35 35 35 35 36 35 35 36 36 37 38 39 41 42 43 44 44 43 41 38 35 35 35 36 36 37 37 38 38 39 40 41 42 44 45 47 50 52
27 25 25 25 25 25 26 26 25 25 25 25 24 25 26 27 28 30 31 31 32 33 33 33 33 33 33 33 33 33 33 34 34 34 34 34 34 34 34 34 35 35 36 37 38 40 42 43 44 44 42 41 40 40 41 41 41 42 42 42 42 42 42 42 43 44 46 48 50
26 25 25 25 26 27 27 27 26 26 25 26 26 27 28 30 31 32 32 32 33 33 32 32 31 30 30 29 30 30 31 32 32 32 32 33 33 33 33 33 34 34 35 36 37 38 39 41 42 43 44 43 42 42 43 43 43 44 44 44 44 44 44 44 44 44 45 46 49
27 27 27 28 29 29 29 29 28 27 27 28 28 29 30 31 31 31 31 31 31 30 30 29 28 27 27 27 28 29 30 31 31 31 32 32 32 32 33 33 33 34 34 35 36 37 38 39 40 42 42 42 41 41 41 42 42 43 44 44 44 44 44 44 44 44 44 45 48
29 30 30 31 31 31 30 30 29 29 29 29 29 29 29 29 29 28 28 28 27 27 26 26 25 25 25 26 27 28 29 29 30 30 31 31 31 32 32 33 33 33 34 34 34 35 36 37 38 39 40 40 39 39 39 40 41 42 43 43 44 44 44 44 44 44 44 45 47
30 31 31 31 30 30 29 28 28 27 27 26 26 25 25 25 24 24 24 24 24 24 24 23 23 23 23 23 24 25 27 27 28 28 29 29 30 30 31 31 32 32 33 33 33 34 34 35 35 36 36 36 37 37 38 39 40 41 42 43 43 43 43 43 44 44 44 45 47
28 28 29 28 27 26 25 24 23 23 22 22 22 21 21 21 21 21 21 21 20 20 20 20 21 22 23 23 23 24 24 25 26 27 27 28 28 29 29 30 31 32 32 32 33 33 33 34 34 34 34 34 35 35 36 37 39 41 42 43 43 43 43 43 44 44 45 46 47
24 25 25 24 22 21 20 19 18 18 18 18 18 18 18 18 18 17 17 16 16 16 17 18 20 21 23 23 23 23 24 24 25 26 27 27 28 29 30 30 31 32 32 33 33 34 34 34 34 33 33 33 34 34 34 35 37 39 41 42 42 42 43 44 45 46 47 47 49
21 21 20 19 18 17 16 16 15 15 15 15 15 15 15 14 14 13 13 13 14 14 15 16 18 19 20 22 23 23 23 24 25 26 27 28 29 29 30 31 31 32 33 34 34 35 35 34 34 33 33 33 33 33 33 34 35 37 39 40 41 42 43 45 46 47 47 47 48
18 17 17 16 16 15 15 14 14 14 13 13 12 12 12 13 13 13 13 13 14 14 15 15 16 17 18 19 20 21 22 23 24 25 26 27 28 29 30 30 31 32 32 33 34 35 35 34 34 33 32 32 33 33 33 33 34 35 37 39 40 41 41 42 41 41 41 42 43
15 15 15 15 15 15 14 14 13 13 12 12 12 12 13 13 14 14 13 13 14 14 15 15 15 16 16 16 17 18 19 21 22 23 24 25 27 28 29 29 30 30 31 32 33 34 34 35 34 33 32 32 32 32 32 33 33 35 37 39 40 40 38 38 37 37 37 38 39
15 15 15 15 15 15 14 14 13 13 12 12 13 13 14 14 15 14 14 13 14 14 15 15 15 15 14 14 14 15 16 18 19 21 22 23 24 25 26 28 29 30 31 32 32 33 34 34 34 33 32 32 32 32 32 33 35 36 38 39 40 40 39 38 37 37 38 39 40
15 15 15 15 15 15 14 13 13 14 14 14 14 14 14 14 14 14 14 14 15 15 15 15 14 14 13 12 12 12 12 13 15 16 18 19 21 23 24 26 28 29 30 31 31 30 31 31 32 32 32 32 33 34 34 35 36 37 39 40 41 41 41 40 39 39 40 41 43
15 16 17 16 16 15 14 13 14 15 15 14 14 14 13 13 13 14 14 15 15 15 15 14 14 14 12 11 10 9 9 10 10 12 13 14 16 18 21 23 24 25 25 25 25 26 27 29 31 31 32 34 35 35 35 35 36 37 38 39 41 42 42 41 41 41 42 43 45
16 17 18 17 16 15 13 13 14 14 14 13 13 13 12 12 13 14 15 15 15 14 15 15 15 13 12 10 9 9 9 8 9 9 10 11 12 14 16 18 20 20 21 20 21 23 25 28 30 31 33 34 35 34 34 34 34 35 37 38 39 41 41 42 42 43 44 45 46
16 17 17 17 16 15 14 14 13 13 13 12 12 12 13 13 14 14 15 15 16 16 16 16 15 13 12 11 10 10 10 9 8 8 8 9 10 11 13 16 18 20 20 19 20 22 24 26 29 30 32 33 33 33 32 33 33 35 36 37 38 40 41 42 43 44 45 46 46
16 17 17 17 16 16 15 14 14 14 14 14 14 15 16 16 16 16 17 18 19 18 18 16 15 14 13 12 12 12 11 9 8 8 8 8 9 11 12 15 17 18 19 18 18 20 22 24 26 28 29 30 30 30 31 32 33 35 36 37 38 39 41 42 43 44 45 45 44
16 16 17 17 17 17 17 16 15 15 15 15 16 16 17 17 17 18 19 20 20 20 19 18 16 15 15 14 14 13 12 10 9 8 8 8 9 9 11 13 15 16 17 17 17 17 19 22 24 26 27 28 28 29 31 33 34 35 37 37 38 39 40 41 41 41 42 41 40
17 17 17 17 17 17 17 16 16 15 15 15 16 16 17 18 19 20 21 21 21 21 20 19 18 18 17 16 15 14 12 11 10 9 9 8 8 9 10 12 13 14 15 15 15 15 17 20 22 25 26 27 29 31 33 35 36 37 38 38 39 39 39 39 39 38 38 37 36
18 18 18 18 17 17 16 15 15 15 15 15 16 17 18 20 21 22 22 22 22 21 20 19 19 18 18 17 16 15 14 12 11 10 10 10 9 10 11 13 14 15 15 15 14 15 17 19 22 24 26 28 31 33 36 38 39 39 39 39 39 39 38 37 37 36 35 35 35
18 18 18 17 17 16 15 15 15 15 16 17 19 20 21 21 22 22 22 22 21 20 20 19 18 18 17 17 16 16 15 14 13 13 12 12 11 11 13 15 17 18 18 17 17 17 19 21 24 26 28 31 34 37 39 40 40 40 39 39 38 38 37 36 36 35 34 34 34
17 18 18 17 17 16 16 16 17 17 19 20 22 22 23 23 23 22 21 21 20 20 19 18 18 18 18 18 18 17 17 17 17 16 15 14 14 14 16 18 20 21 21 21 21 21 23 25 27 28 31 34 37 39 40 39 39 38 38 37 37 36 36 35 34 34 33 32 31
17 17 18 18 18 18 19 19 20 21 22 23 24 25 25 24 23 22 21 20 20 20 20 20 20 21 21 21 21 21 21 20 20 19 19 18 17 18 19 21 23 24 24 23 23 23 25 27 29 31 33 36 38 38 37 37 36 36 35 35 34 34 33 32 31 30 28 27 25
18 18 18 19 21 21 22 23 24 25 26 27 27 27 26 25 25 24 22 21 21 22 23 25 25 26 26 26 26 26 26 25 24 23 22 22 21 22 24 26 27 27 26 25 23 24 25 27 29 31 33 35 35 35 34 34 33 33 32 32 31 30 29 28 27 26 24 23 22
19 19 20 21 23 24 25 26 27 28 29 29 29 28 27 26 27 26 26 25 26 28 30 31 31 31 31 31 32 32 31 30 29 28 28 27 27 27 28 30 32 31 29 27 25 25 26 28 30 30 31 31 31 31 31 31 31 30 30 29 29 28 27 27 26 25 24 23 21
21 21 22 24 25 27 28 29 30 31 31 31 31 31 30 30 31 31 32 33 34 35 35 35 35 35 35 36 36 36 36 35 34 33 33 33 32 33 34 35 35 33 30 26 25 25 26 27 27 26 26 27 27 28 28 28 29 29 28 28 27 27 27 27 26 26 25 24 22
22 23 25 26 27 29 30 31 32 33 33 33 33 33 33 34 35 36 36 37 37 36 36 35 35 36 36 37 38 38 37 37 35 35 34 34 35 35 35 35 33 31 28 24 23 22 23 24 23 23 23 23 24 25 26 26 27 27 26 26 25 25 25 25 25 25 24 23 22
Wind_Direction
182 182 181 181 182 183 185 186 185 185 185 185 187 188 189 190 192 194 195 197 199 202 203 204 204 205 207 209 210 209 210 213 214 217 219 221 223 223 222 221 220 220 220 220 220 219 219 221 222 222 222 221 221 222 223 224 223 223 223 221 220 219 219 218 219 217 216 216 218
182 182 181 180 181 182 183 185 186 185 185 185 186 187 188 190 192 195 196 196 199 201 203 205 207 207 208 210 212 212 212 213 215 217 220 222 224 226 226 224 223 223 223 222 222 221 221 223 224 224 225 225 225 225 226 227 227 226 226 226 223 220 218 218 219 219 218 217 218
181 182 182 181 181 181 182 184 186 186 186 187 186 186 188 190 192 194 197 197 198 200 203 208 211 212 212 213 214 215 215 215 216 218 220 222 225 226 227 227 227 227 227 225 224 224 224 224 225 226 227 227 228 228 228 229 228 227 227 227 226 223 219 219 219 219 219 218 218
179 180 181 180 180 179 180 182 184 185 186 188 188 188 188 189 190 193 196 199 200 202 206 211 216 219 219 218 218 218 219 219 218 218 220 221 224 226 228 230 230 229 229 228 227 228 228 227 227 228 229 230 230 230 230 230 228 227 227 228 227 225 221 220 220 220 219 219 219
178 179 180 179 178 178 179 181 183 184 185 187 188 187 187 188 188 191 195 200 203 205 207 211 217 221 222 221 220 220 220 220 220 219 220 221 224 226 228 231 232 232 232 231 231 231 231 229 228 228 229 230 230 231 231 230 228 227 227 227 227 225 223 221 221 220 220 219 219
177 179 180 180 178 178 178 181 183 184 185 187 188 188 188 189 191 194 197 201 204 205 207 209 215 220 222 222 220 219 219 220 221 221 220 221 222 224 226 230 232 234 234 235 235 234 234 232 230 229 229 230 230 231 231 230 228 227 227 227 227 226 225 222 221 221 219 218 218
177 178 180 180 179 178 179 181 184 186 187 189 190 191 193 195 197 199 201 203 204 204 206 210 215 219 222 222 221 220 220 220 221 222 222 221 222 224 227 230 232 233 234 236 237 236 235 234 232 231 231 231 232 232 232 231 230 229 229 230 230 229 227 226 224 222 220 219 218
177 178 179 180 181 182 184 186 187 189 191 193 195 197 199 201 203 204 205 206 205 206 210 214 218 222 225 227 227 226 225 224 225 226 226 224 224 225 228 230 231 232 233 235 237 237 236 235 234 234 234 234 235 235 235 234 234 233 233 234 234 232 230 229 226 223 221 220 219
175 177 179 182 185 188 191 193 193 194 195 197 199 201 202 204 206 207 208 210 212 215 218 221 225 228 230 231 231 231 230 230 230 230 230 229 229 229 230 231 231 231 232 234 236 237 237 237 237 237 237 237 237 238 238 237 236 236 236 235 235 233 231 229 225 223 222 221 220
175 177 181 185 189 192 194 196 197 197 198 199 199 200 202 206 210 212 215 218 221 224 225 227 230 232 234 235 236 236 236 236 236 235 235 234 233 233 233 233 233 232 232 233 234 235 235 236 236 237 238 239 239 239 239 238 237 237 236 236 234 232 230 228 224 223 222 222 221
177 179 182 185 188 191 193 195 197 198 198 197 197 198 202 208 214 218 222 226 226 227 229 232 234 235 237 238 239 239 239 239 238 238 237 237 236 235 235 234 233 232 231 230 230 229 229 230 232 234 236 237 238 238 238 237 237 237 237 236 235 234 232 230 227 226 225 225 224
177 178 181 184 187 189 192 194 197 198 199 199 199 202 206 213 218 223 226 227 228 229 232 235 236 237 237 237 237 237 237 236 235 235 234 234 233 232 232 232 231 230 229 228 226 223 221 223 226 228 230 232 234 235 236 236 237 237 237 238 238 237 236 234 232 231 230 229 227
177 178 182 186 190 192 194 194 197 200 202 204 205 208 213 218 222 225 227 228 230 232 234 235 236 235 234 233 233 231 230 229 229 229 229 229 228 228 228 229 230 230 230 229 226 222 219 218 219 221 224 227 230 232 233 235 236 237 238 239 239 239 239 239 238 237 235 233 231
180 183 186 190 194 196 196 195 197 202 206 208 209 211 215 220 224 226 228 230 232 233 233 232 232 232 231 230 229 228 226 226 226 227 228 228 228 228 229 230 232 233 234 234 232 229 225 222 220 219 220 224 228 231 233 235 236 238 239 240 240 241 242 242 242 241 239 236 233
184 187 190 193 196 198 197 197 199 203 207 209 209 211 214 218 223 227 229 231 232 232 230 229 228 228 229 229 229 228 228 228 228 229 230 231 232 232 234 235 237 238 238 238 237 236 233 231 228 226 226 228 233 236 239 240 241 242 242 243 243 244 244 245 244 242 240 237 234
189 191 193 195 198 199 199 199 201 203 206 208 208 210 213 217 222 226 229 229 230 229 228 227 226 226 227 228 230 231 231 232 232 232 233 234 236 237 237 238 238 238 239 239 239 238 238 237 236 234 234 235 237 240 243 244 244 245 245 246 246 247 246 246 245 242 240 238 234
194 195 196 197 199 200 200 201 202 203 205 207 209 212 215 218 221 224 226 227 227 226 225 226 226 227 228 230 232 233 234 234 234 235 236 237 237 238 238 237 237 236 236 237 237 238 239 239 239 239 239 239 239 241 242 244 244 245 245 246 247 247 247 247 246 244 243 240 236
197 198 198 199 200 201 202 202 203 204 206 208 211 214 216 219 220 222 223 224 224 224 225 228 230 232 234 235 236 236 236 236 236 236 237 237 238 238 238 237 237 236 236 236 237 238 239 240 241 241 241 240 238 237 238 240 242 243 244 245 246 247 247 247 247 246 245 242 239
195 197 197 198 199 199 201 202 204 206 208 210 212 214 216 218 219 220 221 223 225 228 232 234 236 237 238 237 237 237 237 237 238 238 238 238 238 238 238 238 237 237 237 237 238 238 240 241 242 243 243 242 238 236 235 236 238 240 242 242 244 245 246 247 248 247 246 244 241
192 193 193 194 195 197 199 202 205 208 210 211 213 214 215 217 220 223 226 230 233 236 237 237 236 235 235 235 236 238 239 241 241 241 241 241 240 240 240 239 239 238 238 238 239 239 240 241 243 244 245 245 243 239 236 235 236 238 239 240 241 243 245 246 247 247 246 244 241
189 191 193 194 195 197 200 204 207 209 211 213 215 217 219 222 226 230 234 236 236 235 234 232 230 229 229 231 233 236 239 242 243 244 244 244 244 243 242 242 241 240 240 240 240 239 239 239 240 241 243 245 245 244 241 238 236 236 237 238 240 243 245 246 247 247 245 243 240
190 193 195 197 198 200 202 205 207 209 212 215 219 222 225 228 230 232 231 229 226 225 225 225 226 226 228 229 231 233 236 239 241 242 244 244 245 245 244 243 242 241 240 240 239 239 238 237 236 236 238 241 243 243 242 239 236 235 236 238 240 243 245 246 246 246 244 241 238
192 196 197 198 198 200 201 203 205 209 213 217 221 225 227 228 226 222 217 212 213 216 219 222 224 226 228 230 231 233 234 236 237 239 240 242 243 243 243 242 240 239 238 238 237 237 236 235 233 232 233 236 238 239 238 237 235 234 235 237 240 242 243 244 243 241 239 236 233
193 195 195 195 195 196 199 201 205 209 213 216 217 217 218 218 216 211 207 208 211 215 218 221 223 225 227 229 231 232 234 236 238 239 240 240 241 241 241 240 239 238 237 237 236 236 236 235 233 232 232 233 234 235 235 234 234 235 236 237 238 238 237 235 233 231 228 226 224
193 194 194 194 194 197 200 203 206 209 209 208 206 205 206 207 209 209 208 209 211 213 214 215 216 218 221 224 227 231 234 236 237 238 239 240 239 239 239 239 239 238 237 236 236 236 236 235 234 233 233 233 233 232 232 232 234 235 236 236 234 230 225 221 219 217 214 213 212
194 194 194 194 196 198 201 203 203 203 201 199 199 200 202 205 207 208 207 205 205 205 205 205 207 209 213 217 222 226 230 233 234 235 236 236 236 236 236 236 236 236 236 235 235 235 236 236 236 236 235 233 232 231 230 231 232 233 232 230 227 222 217 213 210 208 206 204 202
189 190 190 190 192 193 194 194 193 193 193 194 196 198 200 203 204 203 201 199 199 199 199 200 201 203 207 212 217 222 227 231 234 235 235 234 233 233 233 233 233 233 233 234 234 235 236 237 238 237 235 232 230 229 229 229 229 228 226 224 222 219 215 210 206 203 201 199 197
174 179 182 182 182 181 179 178 181 186 190 191 192 193 195 196 196 195 194 195 196 196 197 197 199 201 205 209 216 222 229 234 239 242 241 239 236 235 234 233 232 232 232 232 234 236 239 241 240 237 233 231 229 228 227 225 223 221 220 218 217 215 212 207 203 200 197 195 194
162 168 172 173 172 168 164 166 172 178 182 182 183 184 184 182 183 186 189 192 194 196 197 199 200 202 206 212 219 227 233 240 246 250 249 246 243 241 239 238 236 235 234 235 238 241 243 243 241 236 232 229 227 225 223 221 218 215 212 210 209 208 205 203 200 197 195 193 192
157 161 164 164 163 161 160 159 163 166 168 167 168 170 172 171 173 179 185 190 193 196 198 199 201 204 209 215 223 229 234 239 248 254 256 253 250 246 242 241 239 238 239 240 242 244 244 242 238 233 229 225 223 221 218 215 212 207 203 200 199 198 198 197 195 194 192 191 189
154 157 158 159 160 160 159 155 156 159 162 164 164 167 170 171 174 180 186 190 193 196 198 199 202 205 209 215 222 226 230 235 243 251 253 252 248 243 239 236 234 235 237 239 241 242 242 241 236 231 226 222 218 214 210 206 201 196 191 188 186 187 187 187 187 186 185 185 184
150 151 152 153 155 156 156 154 157 161 165 166 167 169 170 173 178 183 187 190 193 195 196 198 201 204 208 212 216 220 223 227 233 238 240 238 235 230 226 223 221 225 230 236 237 238 238 238 234 229 223 218 212 205 198 192 187 181 177 173 172 172 173 173 173 174 176 178 179
144 145 146 148 150 152 154 156 159 162 164 165 167 170 173 177 180 183 185 188 190 192 193 196 199 202 204 205 208 210 213 215 218 219 220 218 216 212 208 204 203 210 220 230 234 234 233 232 229 225 219 212 202 192 185 179 173 168 163 160 159 159 160 162 163 166 170 174 177
143 145 146 148 149 151 153 155 158 161 163 166 170 174 177 179 181 182 183 185 187 188 190 192 194 196 196 197 198 199 198 197 196 195 194 195 196 196 191 184 184 193 206 221 229 230 228 225 222 218 212 202 189 178 171 166 161 157 154 152 151 152 154 157 160 163 167 171 174
145 147 148 150 151 153 155 158 161 165 168 171 172 175 176 177 179 180 181 183 185 186 187 189 191 191 190 188 187 185 181 176 172 170 170 172 177 180 176 170 172 181 193 208 218 221 219 216 213 209 201 189 175 165 159 156 153 151 150 149 149 150 151 153 155 158 160 163 165
149 150 151 153 155 158 161 165 168 170 171 170 170 170 171 172 172 174 177 181 184 184 183 183 183 180 175 171 167 163 159 155 153 151 153 156 161 163 162 159 163 170 179 190 199 204 204 202 200 196 187 175 163 156 152 150 148 147 146 146 145 145 145 145 145 146 148 150 152
154 155 155 156 159 161 165 167 168 166 164 163 163 164 165 166 164 166 172 179 180 178 173 169 164 160 156 152 148 144 141 140 140 140 142 145 148 150 150 150 151 155 160 166 174 179 182 181 180 176 168 158 151 147 144 142 140 140 139 138 137 136 136 136 136 137 138 140 142
157 158 159 159 159 160 161 162 161 159 156 156 156 158 159 159 157 159 164 170 168 162 155 150 146 143 141 138 135 133 131 130 130 131 132 135 137 140 141 140 139 138 138 140 144 148 152 153 152 150 146 141 138 136 134 133 132 131 131 131 130 131 132 134 135 137 138 140 142
158 160 161 161 159 158 157 156 154 152 151 151 152 153 153 153 151 151 152 153 148 143 139 136 134 133 132 130 128 126 125 123 123 123 124 127 130 133 134 133 131 128 125 124 124 126 128 130 130 129 128 127 126 126 127 128 128 129 130 130 132 133 135 137 139 142 143 145 147
157 159 160 160 158 156 154 151 149 148 148 148 148 148 147 146 144 142 140 137 134 132 130 128 128 128 127 126 125 123 122 120 119 118 120 122 125 128 129 128 127 125 123 122 120 121 122 123 124 123 122 122 122 123 126 128 131 133 134 136 137 138 139 141 143 145 147 149 152
155 155 155 153 153 151 149 147 144 143 143 142 142 141 140 138 136 133 131 128 126 125 124 123 124 125 125 124 123 122 121 120 119 118 119 120 123 125 126 127 127 127 127 127 127 127 128 130 130 129 128 127 127 128 130 132 135 137 139 140 141 141 141 142 144 147 149 152 155
Height
1384 1387 1390 1393 1396 1399 1403 1406 1408 1409 1411 1413 1415 1417 1419 1421 1423 1425 1426 1428 1430 1431 1433 1434 1436 1438 1440 1441 1443 1444 1446 1448 1449 1450 1450 1452 1453 1454 1456 1458 1459 1461 1462 1464 1465 1467 1468 1469 1470 1471 1472 1473 1474 1475 1476 1477 1479 1479 1481 1482 1484 1485 1486 1487 1489 1490 1491 1492 1493
1383 1386 1389 1392 1395 1398 1402 1404 1407 1409 1410 1413 1414 1416 1418 1420 1422 1424 1425 1427 1429 1430 1432 1433 1435 1437 1439 1440 1441 1443 1444 1446 1448 1449 1449 1450 1451 1452 1454 1455 1457 1459 1460 1461 1463 1464 1465 1466 1468 1469 1470 1471 1472 1473 1474 1474 1476 1477 1478 1479 1481 1482 1484 1485 1486 1487 1489 1489 1491
1382 1385 1389 1392 1394 1398 1400 1403 1405 1407 1409 1412 1414 1415 1417 1419 1421 1423 1424 1426 1428 1429 1431 1433 1434 1435 1437 1439 1440 1442 1443 1444 1446 1447 1448 1449 1450 1451 1452 1454 1455 1456 1458 1459 1461 1462 1463 1464 1465 1466 1467 1468 1469 1470 1471 1472 1473 1474 1475 1476 1478 1479 1481 1482 1483 1484 1486 1487 1489
1382 1385 1388 1391 1393 1396 1399 1401 1404 1406 1408 1411 1413 1414 1416 1418 1420 1422 1423 1425 1427 1429 1430 1431 1432 1434 1435 1437 1439 1440 1441 1443 1444 1446 1447 1448 1449 1449 1450 1451 1453 1454 1455 1457 1458 1459 1460 1462 1463 1464 1464 1465 1466 1467 1468 1469 1470 1471 1472 1473 1474 1476 1478 1479 1480 1482 1483 1484 1486
1381 1384 1387 1389 1392 1395 1398 1400 1403 1405 1408 1409 1411 1414 1415 1417 1419 1421 1422 1424 1426 1428 1429 1430 1431 1432 1434 1435 1437 1438 1440 1441 1442 1444 1445 1446 1447 1448 1449 1449 1450 1452 1453 1454 1456 1457 1458 1459 1460 1461 1462 1463 1463 1464 1465 1467 1468 1469 1469 1470 1472 1473 1474 1476 1477 1479 1480 1482 1483
1380 1383 1386 1389 1392 1394 1397 1400 1402 1404 1407 1409 1410 1412 1414 1416 1418 1419 1421 1423 1424 1426 1428 1429 1430 1431 1432 1434 1435 1437 1438 1439 1440 1441 1443 1444 1445 1446 1447 1448 1449 1450 1451 1452 1453 1454 1456 1457 1458 1459 1459 1460 1460 1461 1462 1464 1464 1465 1466 1467 1469 1470 1471 1473 1474 1475 1477 1479 1480
1380 1383 1386 1388 1391 1394 1396 1399 1401 1404 1406 1408 1409 1411 1413 1414 1416 1418 1419 1421 1423 1425 1426 1427 1428 1429 1431 1432 1434 1435 1436 1437 1439 1439 1441 1442 1444 1444 1445 1446 1447 1448 1449 1449 1451 1452 1453 1454 1455 1456 1457 1457 1458 1458 1459 1461 1461 1462 1463 1464 1465 1467 1468 1470 1472 1473 1474 1475 1477
1380 1383 1385 1388 1390 1393 1395 1398 1401 1403 1405 1407 1409 1410 1412 1413 1415 1416 1418 1419 1421 1423 1424 1425 1427 1428 1429 1431 1432 1433 1434 1435 1437 1438 1439 1440 1441 1443 1443 1444 1445 1446 1447 1448 1448 1449 1450 1452 1452 1453 1454 1454 1455 1456 1457 1458 1459 1459 1460 1461 1463 1464 1465 1468 1470 1471 1471 1472 1474
1380 1382 1385 1387 1390 1393 1395 1397 1400 1402 1404 1406 1407 1409 1411 1412 1414 1415 1416 1418 1419 1420 1422 1424 1425 1427 1428 1429 1430 1432 1433 1434 1435 1436 1437 1438 1439 1440 1441 1442 1443 1444 1445 1446 1446 1447 1448 1449 1450 1450 1451 1451 1452 1453 1454 1455 1456 1457 1458 1459 1460 1462 1463 1465 1466 1467 1468 1469 1471
1379 1382 1385 1387 1390 1392 1394 1397 1399 1401 1403 1404 1406 1408 1410 1411 1412 1413 1414 1416 1417 1419 1421 1422 1424 1425 1426 1427 1428 1429 1430 1432 1433 1434 1435 1436 1437 1438 1439 1440 1441 1442 1443 1444 1444 1445 1446 1447 1447 1447 1448 1449 1449 1450 1452 1453 1453 1454 1455 1456 1458 1459 1460 1462 1463 1464 1465 1466 1468
1379 1382 1384 1386 1389 1391 1393 1396 1398 1399 1401 1403 1405 1407 1408 1409 1410 1412 1413 1414 1416 1418 1419 1421 1422 1423 1424 1425 1426 1427 1429 1429 1431 1432 1433 1434 1434 1436 1437 1438 1439 1439 1440 1441 1442 1443 1444 1444 1444 1445 1445 1446 1447 1448 1449 1450 1451 1452 1453 1454 1455 1456 1457 1459 1460 1462 1463 1464 1465
1378 1380 1383 1385 1387 1390 1392 1394 1396 1398 1400 1402 1403 1405 1406 1407 1409 1410 1412 1414 1415 1417 1418 1419 1420 1421 1422 1423 1424 1425 1427 1428 1429 1430 1431 1432 1433 1434 1434 1435 1436 1437 1438 1439 1439 1441 1442 1443 1443 1443 1443 1444 1444 1445 1446 1448 1449 1450 1451 1452 1453 1454 1455 1457 1458 1459 1461 1462 1463
1377 1379 1382 1384 1386 1389 1391 1393 1395 1397 1398 1400 1401 1403 1404 1406 1408 1409 1410 1412 1414 1415 1416 1417 1418 1419 1420 1422 1423 1424 1425 1426 1427 1428 1429 1429 1430 1431 1432 1433 1434 1435 1436 1437 1437 1439 1440 1441 1441 1441 1442 1442 1442 1443 1444 1445 1447 1448 1449 1450 1451 1452 1453 1454 1455 1457 1458 1459 1460
1376 1379 1381 1383 1385 1388 1390 1392 1394 1395 1397 1398 1400 1402 1404 1405 1406 1408 1409 1411 1412 1413 1414 1416 1417 1418 1419 1420 1421 1423 1424 1424 1425 1426 1427 1428 1429 1430 1431 1432 1433 1434 1434 1435 1436 1437 1438 1438 1439 1439 1440 1440 1440 1441 1442 1443 1444 1445 1446 1447 1448 1449 1450 1451 1453 1454 1455 1456 1457
1376 1378 1380 1382 1384 1386 1389 1391 1392 1394 1395 1397 1399 1401 1403 1404 1405 1406 1408 1409 1410 1412 1413 1414 1415 1416 1418 1419 1420 1421 1422 1423 1424 1425 1426 1427 1428 1429 1429 1430 1431 1432 1433 1434 1434 1435 1436 1436 1437 1438 1439 1439 1439 1439 1440 1441 1442 1443 1444 1444 1445 1446 1447 1448 1450 1451 1452 1453 1454
1375 1377 1379 1381 1384 1386 1388 1389 1391 1393 1394 1396 1398 1400 1401 1403 1404 1405 1406 1408 1409 1410 1411 1412 1414 1415 1416 1418 1419 1420 1421 1422 1423 1424 1424 1425 1426 1427 1428 1429 1429 1430 1431 1432 1433 1433 1434 1434 1435 1436 1437 1438 1438 1438 1438 1439 1439 1440 1441 1442 1443 1444 1444 1445 1447 1448 1449 1450 1451
1375 1377 1379 1381 1383 1385 1387 1389 1390 1392 1393 1395 1397 1398 1399 1401 1402 1404 1404 1406 1407 1409 1410 1411 1413 1414 1416 1417 1418 1419 1420 1421 1422 1422 1423 1424 1424 1425 1426 1426 1427 1428 1429 1429 1430 1431 1431 1432 1433 1434 1435 1435 1436 1436 1436 1436 1437 1438 1439 1439 1440 1441 1442 1443 1444 1445 1446 1448 1449
1375 1377 1379 1381 1383 1385 1386 1388 1389 1390 1392 1394 1395 1397 1398 1399 1401 1402 1404 1405 1406 1408 1409 1411 1412 1413 1414 1416 1417 1418 1419 1419 1420 1420 1421 1422 1423 1424 1424 1424 1425 1426 1427 1427 1428 1428 1429 1429 1430 1431 1432 1433 1434 1434 1434 1435 1435 1435 1436 1437 1438 1439 1439 1440 1441 1443 1444 1445 1446
1376 1378 1379 1381 1383 1384 1386 1387 1388 1389 1391 1393 1394 1396 1398 1399 1400 1402 1403 1404 1406 1407 1408 1409 1411 1412 1413 1414 1414 1415 1416 1417 1418 1419 1419 1420 1421 1421 1422 1423 1423 1424 1425 1425 1426 1426 1427 1427 1428 1429 1429 1430 1431 1432 1433 1433 1433 1434 1434 1435 1435 1436 1437 1438 1439 1440 1441 1442 1444
1377 1378 1379 1381 1382 1384 1385 1386 1388 1389 1391 1393 1394 1395 1397 1398 1400 1401 1402 1404 1404 1406 1407 1408 1409 1410 1411 1412 1413 1413 1414 1414 1415 1416 1417 1417 1418 1419 1419 1420 1421 1422 1423 1423 1424 1424 1425 1425 1426 1426 1427 1427 1429 1429 1430 1431 1431 1431 1432 1432 1433 1434 1435 1436 1437 1438 1439 1440 1441
1377 1378 1379 1381 1382 1383 1385 1386 1388 1389 1391 1392 1393 1394 1396 1397 1399 1400 1401 1402 1403 1404 1404 1406 1407 1408 1409 1410 1411 1412 1412 1413 1413 1414 1414 1415 1415 1416 1417 1418 1419 1419 1420 1421 1422 1422 1423 1423 1424 1424 1424 1425 1426 1427 1428 1428 1429 1429 1429 1430 1431 1432 1433 1434 1434 1436 1437 1438 1439
1376 1377 1379 1380 1382 1383 1384 1386 1387 1389 1390 1391 1392 1393 1394 1396 1397 1398 1399 1400 1401 1402 1403 1404 1405 1406 1407 1408 1409 1410 1410 1411 1412 1412 1413 1413 1414 1414 1415 1416 1417 1418 1418 1419 1419 1420 1420 1421 1422 1422 1423 1423 1424 1424 1425 1426 1426 1427 1427 1428 1429 1430 1431 1431 1432 1433 1434 1435 1437
1375 1377 1378 1379 1381 1382 1384 1385 1386 1388 1389 1390 1391 1392 1393 1394 1395 1396 1397 1399 1399 1400 1401 1403 1404 1404 1405 1406 1407 1408 1409 1409 1410 1410 1411 1411 1412 1412 1413 1414 1415 1415 1416 1416 1417 1418 1418 1419 1419 1419 1420 1421 1421 1422 1423 1423 1424 1425 1425 1426 1427 1428 1429 1429 1430 1431 1433 1434 1435
1375 1376 1378 1379 1380 1382 1383 1384 1385 1386 1388 1389 1390 1391 1392 1393 1394 1395 1396 1398 1399 1400 1401 1402 1403 1404 1404 1405 1406 1406 1407 1407 1408 1408 1409 1409 1410 1410 1411 1412 1412 1413 1413 1414 1414 1415 1415 1416 1417 1417 1418 1419 1419 1419 1420 1421 1422 1423 1423 1424 1425 1426 1428 1429 1430 1432 1433 1435 1436
1375 1376 1377 1378 1379 1381 1382 1383 1384 1385 1387 1388 1389 1390 1392 1393 1394 1395 1396 1397 1398 1399 1400 1401 1402 1403 1403 1404 1405 1405 1406 1406 1406 1406 1407 1407 1408 1408 1409 1409 1410 1410 1411 1411 1412 1412 1413 1414 1414 1415 1415 1416 1417 1417 1418 1419 1419 1420 1422 1423 1424 1425 1427 1428 1429 1431 1433 1434 1435
1375 1376 1377 1378 1379 1380 1381 1382 1384 1385 1387 1388 1389 1390 1391 1392 1393 1394 1395 1397 1398 1399 1399 1400 1401 1402 1403 1403 1404 1404 1404 1404 1405 1405 1405 1405 1405 1406 1407 1407 1408 1408 1408 1409 1409 1410 1411 1412 1412 1413 1413 1414 1415 1416 1416 1417 1418 1419 1419 1421 1422 1423 1424 1425 1426 1428 1429 1431 1432
1375 1376 1377 1378 1379 1380 1381 1382 1384 1385 1386 1388 1389 1390 1391 1392 1393 1394 1395 1396 1397 1398 1399 1399 1400 1401 1402 1402 1403 1403 1403 1403 1404 1404 1403 1403 1404 1404 1404 1404 1405 1405 1405 1406 1407 1408 1409 1409 1410 1411 1412 1412 1413 1413 1414 1414 1416 1416 1417 1418 1419 1419 1420 1422 1424 1426 1427 1429 1431
1376 1377 1377 1378 1379 1380 1381 1383 1384 1385 1386 1387 1388 1389 1390 1391 1392 1394 1394 1395 1396 1397 1398 1399 1399 1400 1401 1401 1402 1402 1403 1403 1403 1402 1402 1402 1402 1402 1402 1402 1403 1403 1404 1405 1406 1406 1407 1408 1408 1409 1409 1409 1409 1410 1411 1412 1413 1414 1415 1415 1416 1417 1419 1420 1422 1424 1426 1428 1429
1376 1377 1378 1379 1379 1381 1382 1383 1384 1385 1386 1387 1388 1389 1389 1390 1391 1393 1394 1394 1395 1396 1397 1398 1399 1399 1400 1401 1401 1402 1402 1402 1402 1401 1401 1400 1400 1400 1400 1401 1401 1402 1403 1404 1404 1405 1405 1406 1406 1407 1407 1407 1407 1409 1409 1410 1411 1412 1413 1414 1415 1416 1417 1419 1421 1423 1424 1426 1428
1377 1377 1378 1379 1380 1381 1383 1384 1384 1385 1386 1386 1387 1388 1389 1390 1391 1392 1393 1394 1394 1395 1396 1397 1398 1399 1400 1400 1401 1401 1401 1401 1401 1400 1400 1399 1399 1399 1399 1399 1400 1401 1401 1402 1403 1403 1404 1404 1405 1404 1404 1405 1406 1407 1408 1409 1410 1411 1412 1413 1414 1415 1416 1418 1419 1421 1423 1424 1426
1376 1377 1378 1379 1380 1381 1382 1383 1384 1384 1385 1386 1386 1387 1388 1389 1390 1391 1392 1393 1394 1395 1396 1397 1398 1399 1399 1400 1400 1400 1400 1400 1400 1399 1399 1399 1398 1398 1399 1399 1399 1400 1400 1401 1401 1402 1403 1403 1403 1403 1404 1404 1405 1406 1407 1408 1409 1410 1411 1412 1414 1414 1416 1417 1419 1420 1422 1424 1426
1376 1377 1378 1379 1380 1381 1382 1382 1383 1384 1384 1385 1386 1387 1388 1389 1390 1391 1392 1393 1394 1395 1396 1397 1398 1398 1399 1399 1399 1400 1400 1399 1399 1399 1399 1399 1398 1398 1398 1399 1399 1399 1400 1400 1401 1401 1402 1402 1402 1403 1403 1404 1404 1405 1406 1407 1408 1409 1411 1412 1414 1415 1416 1418 1419 1421 1423 1425 1427
1376 1377 1378 1379 1379 1380 1381 1382 1382 1383 1384 1385 1386 1387 1388 1389 1390 1391 1392 1393 1394 1395 1396 1396 1397 1398 1398 1399 1399 1399 1399 1399 1399 1399 1399 1399 1399 1399 1399 1399 1399 1400 1400 1400 1401 1401 1401 1402 1402 1402 1403 1403 1404 1405 1406 1407 1408 1409 1411 1413 1415 1416 1418 1419 1421 1423 1425 1427 1429
1376 1377 1378 1379 1379 1380 1381 1382 1383 1384 1384 1385 1387 1388 1389 1389 1390 1391 1392 1393 1394 1394 1395 1396 1397 1397 1398 1398 1398 1399 1399 1399 1399 1399 1399 1399 1399 1399 1399 1399 1400 1401 1401 1401 1401 1401 1401 1401 1402 1402 1403 1403 1404 1405 1406 1407 1409 1410 1412 1414 1416 1418 1419 1421 1423 1424 1427 1429 1431
1376 1377 1378 1379 1380 1381 1381 1382 1383 1384 1385 1386 1387 1388 1389 1389 1390 1391 1392 1393 1393 1394 1395 1395 1396 1397 1397 1398 1398 1398 1398 1399 1399 1399 1399 1399 1399 1400 1400 1400 1401 1402 1402 1402 1401 1401 1401 1401 1402 1402 1403 1404 1405 1406 1407 1408 1410 1412 1414 1415 1417 1419 1420 1422 1424 1426 1429 1431 1433
1377 1378 1379 1379 1380 1381 1382 1383 1384 1385 1385 1386 1387 1388 1389 1389 1390 1391 1392 1392 1393 1394 1394 1395 1396 1396 1397 1397 1398 1398 1399 1399 1399 1400 1400 1401 1401 1401 1401 1401 1402 1403 1403 1403 1402 1402 1402 1402 1402 1403 1404 1405 1406 1408 1409 1410 1412 1414 1415 1417 1418 1420 1422 1424 1426 1428 1430 1433 1435
1378 1379 1379 1380 1381 1382 1383 1384 1384 1385 1386 1387 1387 1388 1389 1389 1390 1391 1392 1392 1393 1393 1394 1395 1396 1396 1397 1398 1398 1399 1399 1400 1400 1401 1401 1402 1402 1402 1403 1403 1404 1405 1406 1406 1405 1404 1404 1404 1404 1405 1406 1407 1409 1410 1412 1413 1414 1416 1417 1419 1420 1422 1424 1425 1427 1429 1432 1434 1436
1379 1379 1380 1381 1382 1383 1383 1384 1385 1385 1386 1387 1388 1388 1389 1389 1390 1391 1392 1392 1393 1393 1394 1395 1396 1397 1397 1398 1399 1399 1400 1401 1402 1402 1402 1403 1404 1404 1404 1405 1407 1409 1410 1411 1410 1410 1409 1409 1409 1410 1410 1412 1413 1414 1415 1416 1417 1418 1420 1421 1423 1424 1426 1428 1430 1432 1434 1435 1437
1379 1380 1380 1381 1382 1383 1384 1384 1385 1386 1387 1387 1388 1388 1389 1389 1390 1391 1392 1393 1394 1394 1395 1396 1397 1398 1398 1399 1399 1400 1401 1402 1403 1404 1404 1404 1405 1406 1407 1408 1409 1411 1413 1414 1415 1415 1415 1415 1415 1415 1415 1416 1417 1418 1419 1419 1420 1421 1423 1424 1426 1427 1429 1431 1433 1434 1436 1438 1440
1380 1380 1381 1382 1382 1383 1384 1385 1386 1387 1387 1388 1388 1389 1389 1390 1391 1392 1393 1394 1395 1396 1396 1397 1398 1399 1400 1400 1401 1401 1402 1404 1404 1405 1406 1406 1408 1409 1409 1410 1411 1412 1414 1416 1417 1418 1418 1418 1419 1419 1419 1419 1420 1421 1422 1422 1423 1424 1425 1427 1428 1430 1431 1433 1435 1436 1438 1440 1442
1380 1381 1382 1383 1384 1384 1385 1386 1387 1388 1389 1389 1389 1390 1391 1392 1393 1394 1395 1396 1396 1397 1398 1399 1400 1401 1402 1402 1403 1403 1404 1405 1406 1407 1408 1409 1410 1411 1412 1413 1413 1414 1415 1417 1418 1419 1419 1420 1420 1421 1421 1421 1422 1423 1424 1424 1425 1426 1428 1429 1430 1432 1433 1434 1436 1438 1440 1441 1443